Location: Oshawa
(43.9000°N, 78.8670°W)
Time: 04:01:14
(UTC-05:00)

Daily predictions for brighter satellites

Satellite Brightness Start Highest point End
(mag) Time Altitude Azimuth Time Altitude Azimuth Time Altitude Azimuth
Cosmos 2369 Rocket 3.8 03:29:05 31° NE 03:29:05 31° NE 03:32:08 10° NE
Okean O Rocket 4.0 03:56:30 10° NNE 03:57:38 18° NNE 03:57:38 18° NNE
ATLAS 5 CENTAUR R/B 2.9 04:04:33 43° ENE 04:04:33 43° ENE 04:08:11 10° NE
Cosmos 1943 Rocket 2.6 04:10:10 57° ESE 04:10:10 57° ESE 04:15:34 10° NNE
Cosmos 2263 4.4 04:15:05 66° NNE 04:15:05 66° NNE 04:19:53 10° NNE
Lacrosse 5 rocket 3.9 04:16:57 13° NNE 04:16:57 13° NNE 04:18:07 10° NE
CZ-4B R/B 3.3 04:11:06 10° NNE 04:16:44 77° ESE 04:16:48 76° ESE
Lacrosse 5 2.3 04:19:12 58° E 04:19:12 58° E 04:23:35 10° NE
Cosmos 2266 Rocket 4.5 04:12:27 10° N 04:16:39 46° NNW 04:16:39 46° NNW
USA 234 3.5 04:17:41 10° NE 04:24:08 61° SE 04:26:04 44° S
ADEOS Rocket 4.3 04:19:25 10° N 04:23:31 29° NNW 04:23:31 29° NNW
Thor Agena Rocket 4.3 04:28:23 10° SE 04:33:24 50° ENE 04:38:23 10° N
Cosmos 1452 Rocket 4.2 04:36:33 23° S 04:39:37 54° ESE 04:44:47 10° NNE
ADEOS II 1.9 04:35:29 10° N 04:40:44 72° WNW 04:40:44 72° WNW
Cosmos 1782 Rocket 4.0 04:44:40 10° N 04:49:07 61° E 04:53:30 10° SSE
PAYLOAD B 4.3 04:47:08 10° N 04:52:30 51° WNW 04:52:35 51° WNW
Meteor 1-26 Rocket 4.3 04:47:25 10° S 04:53:05 78° E 04:58:42 10° NNE
Cosmos 407 Rocket 3.6 04:54:00 54° SW 04:54:00 54° SW 04:58:39 10° S
Okean-O 2.7 04:52:28 10° NNE 04:56:55 76° ESE 04:59:52 21° S
Cosmos 676 Rocket 3.9 04:53:08 10° NNW 04:58:26 73° WSW 05:03:44 10° SSE
Tiangong 1 2.6 05:00:17 30° ESE 05:00:17 30° ESE 05:02:11 10° E
CZ-4B DEB 4.4 04:56:38 10° N 05:01:56 47° WNW 05:02:35 45° W
Cosmos 1244 Rocket 4.3 04:57:10 10° N 05:03:25 76° W 05:09:34 10° S
Meteor 1-31 Rocket 2.6 05:01:36 10° NNE 05:05:31 88° WNW 05:06:41 44° SSW
Cosmos 2219 3.4 05:01:02 10° NNW 05:06:44 70° ENE 05:12:21 10° SSE
CZ-4C R/B 2.3 05:06:47 22° SSW 05:10:15 74° ESE 05:16:14 10° NE
Cosmos 2369 Rocket 3.2 05:10:53 27° NW 05:10:57 27° NW 05:15:46 10° N
Cosmos 1140 Rocket 3.4 05:06:29 10° NNW 05:11:45 90° WSW 05:16:59 10° SSE
Cosmos 2227 Rocket 4.1 05:07:04 10° N 05:11:57 28° NE 05:16:47 10° ESE
Cosmos 1656 Rocket 3.7 05:09:36 14° SSW 05:14:38 88° ESE 05:20:21 10° NNE
Okean 2 Rocket 3.0 05:10:18 10° N 05:14:43 85° E 05:19:07 10° S
Meteor PRIRODA 4.4 05:13:41 10° N 05:16:19 36° NW 05:16:19 36° NW
Cosmos 614 Rocket 4.0 05:13:23 10° NNW 05:18:30 80° ENE 05:23:38 10° SSE
SJ-6F 4.3 05:19:09 10° N 05:23:20 83° W 05:27:26 10° SSW
Cosmos 1703 Rocket 3.7 05:22:54 30° SW 05:24:38 47° WNW 05:28:53 10° N
GEOS 3 Rocket 4.4 05:22:01 10° S 05:26:19 28° WSW 05:26:27 27° WSW
Feng Yun 1-1 Rocket 4.3 05:21:02 10° N 05:26:52 67° WNW 05:32:43 10° SSW
S3M 3.9 05:24:47 10° S 05:31:08 82° W 05:37:27 10° N
Cosmos 546 4.5 05:31:43 32° WNW 05:33:25 85° SSW 05:37:16 10° ESE
Cosmos 2151 Rocket 4.1 05:29:35 10° N 05:34:06 65° E 05:38:32 10° SSE
Okean O Rocket 3.7 05:34:31 10° NNW 05:35:07 12° NW 05:35:07 12° NW
Cosmos 1553 Rocket 3.9 05:32:15 10° SSW 05:38:25 69° W 05:44:43 10° N
Cosmos 1850 Rocket 4.0 05:35:29 10° NNW 05:40:51 79° WSW 05:46:09 10° SSE
ATLAS CENTAUR R/B 4.5 05:37:26 21° W 05:40:59 29° SW 05:54:06 10° S
ERS-2 3.9 05:38:28 10° NNW 05:40:04 17° NW 05:40:04 17° NW
CZ-4B R/B 4.5 05:39:49 10° N 05:43:26 35° WNW 05:46:30 14° SW
Meteor 2-10 Rocket 3.9 05:40:25 10° SW 05:45:01 37° WNW 05:49:44 10° N
Cosmos 1633 3.9 05:42:09 10° N 05:45:38 43° ENE 05:49:06 10° SSE
ATLAS 5 CENTAUR R/B 3.1 05:46:08 19° WNW 05:48:14 25° NW 05:52:36 10° NNE
Meteor 2-11 Rocket 4.5 05:42:31 10° S 05:48:38 87° E 05:54:48 10° N
Radarsat Rocket 4.3 05:42:53 10° NNE 05:50:16 81° WNW 05:56:43 10° SSW
COSMO-SKYMED 1 2.6 05:46:36 10° S 05:50:50 54° W 05:55:07 10° NNW
Ariane Rocket 3.5 05:46:45 10° NNE 05:51:50 65° ESE 05:56:51 10° S
Cosmos 1943 Rocket 3.3 05:51:42 18° W 05:54:16 24° NW 05:58:46 10° N
IDEFIX/ARIANE 42P 4.2 05:50:21 10° NNE 05:55:14 38° E 06:00:03 10° SSE
NOAA 6 4.2 05:50:24 10° N 05:55:25 52° WNW 06:00:22 10° SW
Cosmos 1420 Rocket 4.1 05:51:13 10° SW 05:56:16 53° WNW 06:01:22 10° NNE
Lacrosse 5 rocket 2.1 05:52:53 10° NW 05:56:20 41° NE 05:59:45 10° ESE
Cosmos 2221 Rocket 4.5 05:53:23 10° SW 05:57:21 29° WNW 06:01:22 10° NNW
Meteor 1-28 Rocket 3.2 05:56:48 10° S 06:00:26 54° W 06:04:08 10° NNW
Meteor 1-27 Rocket 4.3 05:54:56 10° S 06:00:38 66° E 06:06:28 10° NNE
Lacrosse 5 2.8 05:58:26 16° W 06:01:51 33° NNW 06:06:26 10° NE
Meteor 1-20 Rocket 4.4 05:57:55 10° NNW 06:03:23 47° W 06:08:42 10° SSW
USA 234 3.6 06:00:48 10° NE 06:07:03 50° NNW 06:13:17 10° W
Cosmos 1709 Rocket 4.0 06:02:04 10° N 06:08:12 86° E 06:14:21 10° S
CSL-04 Rocket 3.8 06:07:02 10° NNE 06:12:27 85° ESE 06:17:54 10° SSW
Cosmos 2082 4.1 06:06:53 10° NNW 06:12:34 67° ENE 06:18:09 10° SE
Okean 1-7 4.2 06:10:12 10° SW 06:13:33 22° WNW 06:16:54 10° NNW
Abrixas 3.6 06:12:25 11° WNW 06:14:50 31° N 06:17:28 10° ENE
Cosmos 1782 3.4 06:12:44 10° SW 06:16:22 35° WNW 06:20:04 10° N
ADEOS II 3.9 06:18:10 10° NW 06:19:32 11° NW 06:20:55 10° WNW
Cosmos 1602 3.7 06:17:09 10° NNW 06:21:07 72° W 06:25:03 10° S
YAOGAN 1 4.3 06:17:32 10° NNE 06:21:37 39° E 06:25:40 10° SSE
Cosmos 2315 Rocket 4.1 06:16:33 10° S 06:22:56 85° W 06:29:20 10° N
Cosmos 1606 3.3 06:20:51 10° SW 06:24:26 36° WNW 06:28:05 10° N
Cosmos 2369 4.1 06:22:14 10° SSW 06:27:50 70° ESE 06:33:28 10° NNE
Cosmos 1110 Rocket 4.0 06:23:56 10° SSW 06:29:06 88° WNW 06:34:19 10° NNE
